Regional Weather Roundup
Issued by NWS Mt. Holly, NJ

Home | Current Version | Previous Version | Text Only | Print | Product List | Glossary On
Versions: 1 2 3 4 5 6 7 8 9 10 11 12 13 14 15 16 17 18 19 20 21 22 23 24 25 26 27 28 29 30 31 32 33 34 35 36 37 38 39 40 41 42 43 44 45 46 47 48 49 50
000
ASUS41 KPHI 282012
RWRPHI

REGIONAL WEATHER ROUNDUP
NATIONAL WEATHER SERVICE MOUNT HOLLY NJ
400 PM EDT FRI AUG 28 2015

NOTE:  "FAIR" INDICATES FEW OR NO CLOUDS BELOW 12,000 FEET WITH NO
SIGNIFICANT WEATHER AND/OR OBSTRUCTIONS TO VISIBILITY.

 * = STATION DOES NOT REPORT PRECIPITATION (E.G. RAIN, SNOW, ETC.)
        OR FOG.

NJZ015>026-282100-
SOUTHERN NEW JERSEY

CITY           SKY/WX    TMP DP  RH WIND       PRES   REMARKS
POMONA         PTSUNNY   77  54  44 S12       30.15F
MILLVILLE      PTSUNNY   83  54  36 VRB6      30.15F
WRIGHTSTOWN    MOSUNNY   80  55  42 W8        30.12F
MOUNT HOLLY    MOSUNNY   81  54  39 NW6       30.14F
TRENTON        MOSUNNY   80  54  40 N8        30.14F

$$
NJZ001>014-282100-
NORTHERN NEW JERSEY

CITY           SKY/WX    TMP DP  RH WIND       PRES   REMARKS
SUSSEX         MOSUNNY   74  51  44 CALM      30.16F
ANDOVER*         N/A     75  53  46 VRB3      30.17S
MORRISTOWN     MOSUNNY   79  55  44 N7        30.15F
NEWARK         MOSUNNY   82  51  34 W7        30.13F
TETERBORO      SUNNY     80  49  33 NW9       30.12F
CALDWELL       SUNNY     78  51  38 W6        30.15F
SOMERVILLE     MOSUNNY   80  53  39 CALM      30.13F
ALLAIRE*       MOSUNNY   81  54  39 W6        30.14F
TOMS RIVER*    PTSUNNY   81  54  39 NW5       30.15F

$$
PAZ043-044-047-054-055-060>062-066>071-282100-
EASTERN PENNSYLVANIA

CITY           SKY/WX    TMP DP  RH WIND       PRES   REMARKS
PHILADELPHIA   MOSUNNY   82  53  36 N7        30.15F
NORTH PHILA    SUNNY     82  52  35 W6        30.16F
BLUE BELL      SUNNY     79  57  47 N3        30.15F
DOYLESTOWN     MOSUNNY   78  54  43 VRB6      30.15F
QUAKERTOWN*    MOSUNNY   79  55  44 W5        30.17F
POTTSTOWN      MOSUNNY   78  56  46 VRB3      30.17F
LANCASTER      SUNNY     78  55  44 W7        30.16F
COATESVILLE    SUNNY     77  55  47 NW7       30.17F
READING        MOSUNNY   80  57  45 VRB5      30.15F
ALLENTOWN      MOSUNNY   80  55  42 VRB6      30.16F
MOUNT POCONO   PTSUNNY   72  51  47 N5        30.21S
HAZLETON       PTSUNNY   72  52  49 CALM      30.23S
WILKES BARRE   MOSUNNY   74  51  44 N3        30.18F

$$
DEZALL-MDZ008-012-015-019-020-282100-
DELAWARE AND EASTERN MARYLAND

CITY           SKY/WX    TMP DP  RH WIND       PRES   REMARKS
WILMINGTON     MOSUNNY   82  54  37 MISG      30.15F
DOVER          MOSUNNY   80  61  50 E7        30.14F
GEORGETOWN     PTSUNNY   80  54  40 NE7       30.16F
EASTON         MOSUNNY   82  57  42 NW9       30.20F
ABERDEEN       MOSUNNY   81  61  50 SW8       30.13F
PATUXENT       MOSUNNY   78  58  49 E8        30.16F
OCEAN CITY     SUNNY     78  56  46 E10       30.17S
WALLOPS ISLAND MOSUNNY   79  56  45 E8        30.17F
CAMBRIDGE      SUNNY     81  54  39 N6        30.16F
SALISBURY      MOSUNNY   83  56  39 VRB3      30.16F

$$
PAZ001-021-NYZ056-072-MDZ011-DCZ001-282100-
OTHER NEARBY LOCATIONS

CITY           SKY/WX    TMP DP  RH WIND       PRES   REMARKS
HARRISBURG     MOSUNNY   81  55  40 CALM      30.15F
STATE COLLEGE  MOSUNNY   73  55  53 CALM      30.19F
WILLIAMSPORT   MOSUNNY   78  53  41 SW6       30.16F
BINGHAMTON     PTSUNNY   69  53  56 W7        30.20F
NEW YORK CITY  SUNNY     82  50  32 CALM      30.16F
BALTIMORE      MOSUNNY   81  56  42 VRB3      30.14F
WASHINGTON DC  PTSUNNY   81  58  45 SE5       30.15F

$$



USA.gov is the U.S. government's official web portal to all federal, state and local government web resources and services.